User: anonymous   Login
Location: Unspecified
(0.0000°N, 0.0000°E)
Time: 05:44:28
(UTC+00:00)
Language:

YUBELEINY 2 - Orbit

View from above orbital plane
View from above orbital plane
View from above satellite
View from above satellite

Ground track
Ground track

The orbit is defined by the following mean orbital elements,

1 38735U          26107.00509529 +.00000000 +00000-0 +20831-3 0 00002
2 38735  82.4714 112.8497 0017029 197.0410 163.0100 12.42646798    07
Epoch (UTC): 17 April 2026 00:07:20
Eccentricity: 0.0017029
inclination: 82.4714°
perigee height: 1482 km
apogee height: 1509 km
right ascension of ascending node: 112.8497°
argument of perigee: 197.0410°
revolutions per day: 12.42646798
mean anomaly at epoch: 163.0100°

The dashed part of the orbit path shows where the satellite is in the earth's shadow,  

DLR